Santa Fe Century Gran and Medio Fondo 2016

# of participants: 193# of finishers: 168last updated: 5/22/2016 8:53 am
Result Questions?
Award Cat Rank Finish Time MPH Bib First Name Last Name Category Gender Age Age Group City State
1 4:06:06.4 24.38 mph 5111 Fortunato Ferrara Gran Fondo M 37 30-39 Albuquerque NM
2 4:08:17.7 24.16 mph 5051 Randy Flores Gran Fondo M 44 40-49 Santa Fe NM
3 4:15:39.2 23.47 mph 5050 Bryan Reid Gran Fondo M 43 40-49 Santa Fe NM
4 4:16:22.4 23.4 mph 5097 Cameron Brenneman Gran Fondo M 38 30-39 Santa Fe NM
5 4:17:22.2 23.31 mph 5141 Eugene Dougherty Gran Fondo M 48 40-49 Los Alamos NM
6 4:17:49.1 23.27 mph 5027 Todd Ringler Gran Fondo M 47 40-49 Santa Fe NM
7 4:18:59.2 23.17 mph 5147 Mark Wald-Hopkins Gran Fondo M 43 40-49 Los Alamos NM
8 4:19:01.5 23.16 mph 5115 Charlie Drysdale Gran Fondo M 58 50-59 Santa Fe NM
9 4:19:40.4 23.11 mph 5119 Scott Steffen Gran Fondo M 50 50-59 Albuquerque NM
10 4:19:50.1 23.09 mph 5100 PJ LaMariana Gran Fondo M 45 40-49 Albuquerque NM
11 4:21:35.7 22.94 mph 5130 Joshua Gottlob Gran Fondo M 27 19-29 Lakewood CO
12 4:22:54.1 22.82 mph 5138 Matthew Galindro Gran Fondo M 32 30-39 Albuquqerque NM
13 4:29:14.1 22.29 mph 5145 Abiel Lopez Gran Fondo M 56 50-59 El Paso TX
14 4:29:17.2 22.28 mph 5143 Silvio Menezes Gran Fondo M 56 50-59 Albuquerque NM
15 4:30:41.3 22.17 mph 5108 Mark Gunter Gran Fondo M 56 50-59 Sandia Park NM
16 4:38:20.4 21.56 mph 5140 Lyle Amer Gran Fondo M 62 60-69 Santa Fe NM
17 4:39:15.5 21.49 mph 5121 Matt Desmond Gran Fondo M 44 40-49 Santa Fe NM
18 4:41:09.5 21.34 mph 5112 Guy Tann Gran Fondo M 44 40-49 Albuquerque NM
19 4:41:12.1 21.34 mph 5069 David Holland Gran Fondo M 60 60-69 Santa Fe NM
20 4:41:20.0 21.33 mph 5086 Gabriel Aragon Gran Fondo M 51 50-59 Albuquerque NM
21 4:41:30.5 21.31 mph 5041 Doug Pape Gran Fondo M 43 40-49 COLORADO SPRINGS CO
22 4:41:32.1 21.31 mph 5123 Steven Castillo Gran Fondo M 57 50-59 peralta NM
23 4:42:06.5 21.27 mph 5095 William Littleton Gran Fondo M 46 40-49 ALBUQUERQUE NM
24 4:43:18.1 21.18 mph 5004 Vincent Saporito Gran Fondo M 51 50-59 Colorado Springs CO
25 4:43:28.9 21.17 mph 5055 Joseph Erik Hartel Gran Fondo M 48 40-49 Colorado Springs CO
26 4:43:43.9 21.15 mph 5096 Panos Marmaras Gran Fondo M 39 30-39 Albuquerque NM
27 4:46:28.8 20.94 mph 5054 Gage Bonestroo Gran Fondo M 30 30-39 Portales NM
28 4:50:27.2 20.66 mph 5031 George York Gran Fondo M 52 50-59 Monument CO
29 4:52:23.8 20.52 mph 5023 Danny Portillo Gran Fondo M 57 50-59 Colorado Springs CO
30 4:53:42.5 20.43 mph 5098 Steve Alschuler Gran Fondo M 46 40-49 Albuquerque NM
31 4:55:18.3 20.32 mph 5114 Matt Piccarello Gran Fondo M 31 30-39 Santa Fe NM
32 4:55:38.3 20.3 mph 5146 Daniel Swinton Gran Fondo M 42 40-49 Albuquerque NM
33 4:55:56.1 20.27 mph 5084 Ron Smith Gran Fondo M 57 50-59 Amarillo TX
34 4:58:11.9 20.12 mph 5136 Cole Page Gran Fondo M 17 1-18 Corrales NM
35 4:58:34.7 20.1 mph 5101 Aaron McNany Gran Fondo M 27 19-29 Clovis NM
36 4:59:07.2 20.06 mph 5132 Perry Stegall Gran Fondo M 61 60-69 Katy TX
37 4:59:17.1 20.05 mph 5052 Alex Miller Gran Fondo M 30 30-39 Denver CO
38 4:59:22.6 20.04 mph 5006 Mark Conover Gran Fondo M 54 50-59 Castle Rock CO
39 5:00:50.3 19.94 mph 5085 Andrew Greene Gran Fondo M 39 30-39 Rio Rancho NM
40 5:01:43.6 19.89 mph 5113 Adam Spears Gran Fondo M 41 40-49 Richardson TX
42 5:04:40.1 19.69 mph 5047 Ricardo Pinzon Gran Fondo M 34 30-39 Albuquerque NM
43 5:05:13.4 19.66 mph 5064 Trevor McKnight Gran Fondo M 39 30-39 Fairfax VA
44 5:07:49.9 19.49 mph 5122 Carl Gable Gran Fondo M 57 50-59 Santa Fe NM
45 5:11:02.9 19.29 mph 5106 Walter Migdal Gran Fondo M 51 50-59 Albuquerque NM
46 5:12:28.4 19.2 mph 5040 Paul Ocampo Gran Fondo M 38 30-39 Monument CO
47 5:14:52.9 19.05 mph 5038 Michael Porter Gran Fondo M 59 50-59 Wheat Ridge CO
48 5:14:55.2 19.05 mph 5131 Galen Davis Gran Fondo M 56 50-59 Carmel IN
49 5:14:58.4 19.05 mph 5117 Chris Stanek Gran Fondo M 39 30-39 Santa Fe
50 5:15:40.2 19.01 mph 5093 Daniel Smilkstein Gran Fondo M 65 60-69 Steamboat Springs CO
52 5:16:03.6 18.98 mph 5016 Bill Horton Gran Fondo M 59 50-59 Dallas TX
53 5:16:56.0 18.93 mph 5082 john genell Gran Fondo M 55 50-59 Littleton CO
54 5:17:15.0 18.91 mph 5005 Davis Miller Gran Fondo M 30 30-39 Denver CO
56 5:19:33.3 18.78 mph 5032 Christopher Masimer Gran Fondo M 33 30-39 Montrose CO
57 5:19:52.1 18.76 mph 5056 Kent Yount Gran Fondo M 54 50-59 LITTLETON CO
59 5:20:28.5 18.72 mph 5104 David Gehlert Gran Fondo M 52 50-59 Denver CO
60 5:22:19.8 18.61 mph 5012 David Bowman Gran Fondo M 58 50-59 Highlands Ranch CO
61 5:23:53.9 18.52 mph 5090 Arthur Wiselogel Gran Fondo M 60 60-69 Lakewood CO
62 5:24:23.5 18.5 mph 5137 Darrel Kruger Gran Fondo M 65 60-69 Cottonwood AZ
63 5:24:44.6 18.48 mph 5057 Thomas Silewicz Gran Fondo M 60 60-69 Rohnert Park CA
64 5:24:58.8 18.46 mph 5007 Kevin Kilgore Gran Fondo M 62 60-69 Lakewood CO
65 5:25:09.3 18.45 mph 5026 Bill Velasquez Gran Fondo M 51 50-59 Albuquerque NM
66 5:25:54.4 18.41 mph 5116 Noah Bankhurst Gran Fondo M 33 30-39 Albuquerque NM
67 5:25:56.2 18.41 mph 5103 Andrew Templeton Gran Fondo M 23 19-29 Albuquerque NM
68 5:29:56.0 18.19 mph 5088 Jim Ostic Gran Fondo M 61 60-69 Los Alamos NM
69 5:31:03.0 18.12 mph 5008 Ron McOmber Gran Fondo M 60 60-69 Littleton CO
70 5:31:46.5 18.08 mph 5019 Tyne Sansom Gran Fondo M 42 40-49 Portales NM
71 5:31:55.9 18.08 mph 5118 Bruce Dewald Gran Fondo M 60 60-69 Los Alamos NM
72 5:32:53.0 18.02 mph 5091 Benjamin Flowers Gran Fondo M 45 40-49 Denver CO
73 5:32:56.6 18.02 mph 5105 Don Boatwright Gran Fondo M 67 60-69 Monument CO
74 5:34:11.8 17.95 mph 5061 Steve Cawley Gran Fondo M 47 40-49 Kelowna BC
75 5:34:49.6 17.92 mph 5022 Darryl Deighton Gran Fondo M 41 40-49 Colorado Springs CO
76 5:34:49.6 17.92 mph 5028 Dennis Bruens Gran Fondo M 47 40-49 Canon City CO
77 5:39:57.2 17.65 mph 5046 Robert Hurley Gran Fondo M 62 60-69 Pueblo CO
78 5:40:49.0 17.6 mph 5048 Steve Wetmore Gran Fondo M 63 60-69 Tucson AZ
79 5:47:29.0 17.27 mph 5072 Tom Barrett Gran Fondo M 59 50-59 Montrose CO
80 5:49:10.3 17.18 mph 5017 David Booty Gran Fondo M 51 50-59 Dallas TX
81 5:51:54.0 17.05 mph 5030 Dan Kochanek Gran Fondo M 48 40-49 Denver CO
82 5:59:36.6 16.68 mph 5014 Chad Miller Gran Fondo M 47 40-49 Lakewood CO
83 5:59:54.6 16.67 mph 5129 Dean Laird Gran Fondo M 44 40-49 Colorado Springs CO
84 6:01:21.5 16.6 mph 5126 Chris Russell Gran Fondo M 43 40-49 Albuquerque NM
85 6:01:37.6 16.59 mph 5107 Tristan Chavez Gran Fondo M 31 30-39 Albuquerque NM
86 6:05:38.3 16.41 mph 5029 Dayvid Graybill Gran Fondo M 61 60-69 Denver CO
87 6:07:05.6 16.34 mph 5059 Ernesto Padilla Gran Fondo M 52 50-59 El Paso TX
88 6:07:43.5 16.32 mph 5092 Ryan Helinski Gran Fondo M 31 30-39 Albuquerque NM
89 6:10:57.3 16.17 mph 5049 Aaron Orosco Gran Fondo M 35 30-39 Rio Rancho NM
91 6:12:45.3 16.1 mph 5033 Edward BUSTAMANTE Gran Fondo M 58 50-59 Albuquerque NM
92 6:13:27.1 16.07 mph 5076 Timothy Franklin Gran Fondo M 45 40-49 Denver CO
93 6:15:36.3 15.97 mph 5109 Brent Davis Gran Fondo M 43 40-49 Lincoln NE
94 6:15:57.5 15.96 mph 5053 Frank Weissbarth Gran Fondo M 69 60-69 Santa Fe NM
95 6:16:12.6 15.95 mph 5001 Kent Thompson Gran Fondo M 59 50-59 Lincoln NE
96 6:16:13.2 15.95 mph 5002 Darren Robinson Gran Fondo M 44 40-49 Evergreen CO
97 6:21:17.3 15.74 mph 5063 James Falk Gran Fondo M 61 60-69 Dallas TX
101 6:48:13.8 14.7 mph 5124 Joseph Reich Gran Fondo M 35 30-39 Santa fe NM
104 7:02:50.0 14.19 mph 5035 Lewis Coker Gran Fondo M 58 50-59 Bossier City LA
105 7:03:00.4 14.18 mph 5083 Kevin McMaster Gran Fondo M 56 50-59 Shreveport LA
108 7:03:08.1 14.18 mph 5045 Rob Moskowitz Gran Fondo M 33 30-39 Lincoln Park NJ
109 7:04:38.7 14.13 mph 5134 John Avery Gran Fondo M 56 50-59 Shreveport LA
110 7:11:14.2 13.91 mph 5099 Frank Cherne Gran Fondo M 50 50-59 Los Alamos NM
114 7:43:08.8 12.95 mph 5110 Arnold Atkins Gran Fondo M 73 70-98 Santa Fe NM
115 7:48:03.6 12.82 mph 5128 Michael Steel Gran Fondo M 60 60-69 Shiprock NM